Flag for Myanmar Weather past 2 weeks in Yangon, Myanmar

Now
82 °F

Clear.


Feels Like: 88 °F
Forecast: 83 / 101 °F
Wind: 3 mph from West

Location: Rangoon Airport


UV Index: 10 (Very high)

Visibility: 4 mi


Pressure: 29.77 "Hg

Humidity: 74%

Dew point: 73 °F

Location of YangonLocation

Historic Weather in Yangon

°F

Yangon temperature yesterday

Maximum temperature yesterday: 100 °F (at 3:30 PM)
Minimum temperature yesterday: 79 °F (at 5:00 AM)
Average temperature yesterday: 90 °F

Past Weeks' High & Low Weather Summary

 TemperatureHumidityPressure
High100 °F (Apr 18, 2:30 PM)94% (Apr 6, 5:30 AM)29.95 "Hg (Apr 6, 5:30 AM)
Low75 °F (Apr 7, 4:00 AM)18% (Apr 17, 5:00 PM)29.65 "Hg (Apr 20, 4:00 PM)
Average88 °F68%29.82 "Hg
* Reported Apr 6 5:00 AM — Midnight between Apr 20 and Apr 21, Yangon, Weather by CustomWeather, © 2014

Note: Actual official high and low records may vary slightly from our data, if they occured in-between our weather recording intervals... More about our weather records

Advertising

Historic Weather Conditions — Data for Previous 24 hours

 ConditionsComfort  
Time TempWeatherWind HumidityBarometerVisibility
12:00 AM
Apr 21
82 °FClear.3 mph74%29.77 "Hg4 mi
11:00 PM
Apr 20
84 °FSnow. Overcast.3 mph74%29.80 "Hg4 mi
10:30 PM84 °FSnow. Overcast.3 mph74%29.80 "Hg4 mi
9:30 PM86 °FSnow. Overcast.3 mph70%29.77 "Hg4 mi
9:00 PM86 °FSnow. Overcast.3 mph70%29.77 "Hg4 mi
8:30 PM86 °FSnow. Overcast.7 mph70%29.77 "Hg4 mi
8:00 PM88 °FSnow. Overcast.7 mph70%29.74 "Hg4 mi
7:00 PM90 °FClear.5 mph67%29.71 "Hg4 mi
6:30 PM91 °FPassing clouds.3 mph67%29.71 "Hg4 mi
6:00 PM95 °FPassing clouds.6 mph67%29.68 "Hg5 mi
5:30 PM95 °FPassing clouds.9 mph67%29.68 "Hg5 mi
5:00 PM100 °FPassing clouds.6 mph64%29.65 "Hg5 mi
4:30 PM100 °FPassing clouds.9 mph64%29.65 "Hg5 mi
4:00 PM100 °FPassing clouds.3 mphN/A29.65 "Hg5 mi
3:30 PM100 °FPassing clouds.3 mph60%29.68 "Hg5 mi
3:00 PM99 °FPassing clouds.3 mph64%29.68 "Hg5 mi
2:00 PM99 °FPassing clouds.5 mph64%29.71 "Hg5 mi
1:30 PM99 °FPassing clouds.5 mph64%29.74 "Hg5 mi
12:30 PM99 °FPassing clouds.7 mph64%29.77 "Hg5 mi
12:00 PM95 °FPassing clouds.9 mph67%29.80 "Hg5 mi
11:00 AMN/APassing clouds.5 mphN/AN/A5 mi
10:30 AM90 °FPassing clouds.3 mph67%29.83 "Hg5 mi
10:00 AM90 °FPassing clouds.5 mph67%29.83 "Hg5 mi
9:30 AM90 °FPassing clouds.3 mph67%29.83 "Hg5 mi
9:00 AM88 °FClear.3 mph70%29.83 "Hg4 mi
8:30 AM86 °FScattered clouds.5 mph70%29.83 "Hg4 mi
8:00 AM84 °FScattered clouds.5 mph79%29.80 "Hg4 mi
7:30 AM81 °FScattered clouds.5 mph94%29.80 "Hg3 mi
7:00 AM81 °FScattered clouds.5 mph94%29.80 "Hg3 mi
6:30 AM79 °FScattered clouds.5 mph94%29.77 "Hg3 mi
6:00 AM79 °FPassing clouds.2 mph94%29.77 "Hg3 mi
5:00 AM79 °FClear.2 mph94%29.74 "Hg3 mi
Weather by CustomWeather, © 2014

See weather overview